Satellite-Ground Cal/Val Region Overpasses Predictions

Prediction of Satellite NPP Overpassing Cal/Val Region: PacNW

Region Location: (Latitude: 10.00, Longitude: 139.50) to (Latitude: 22.70, Longitude: 165.60).

Table of predicted overpasses for the next 14.0 days since TLE Epoch: 6/24/2016
Interval Starting Time Starting Location Ending Time Ending Location
1 06/24/2016 14:35:15 ( 18.53, 165.60) 06/24/2016 14:37:40 ( 10.02, 163.61)
2 06/24/2016 16:15:34 ( 22.69, 141.25) 06/24/2016 16:17:36 ( 15.53, 139.51)
3 06/25/2016 03:24:40 ( 10.04, 148.76) 06/25/2016 03:28:15 ( 22.67, 145.76)
4 06/25/2016 15:56:33 ( 22.65, 145.99) 06/25/2016 16:00:08 ( 10.03, 142.99)
5 06/26/2016 03:05:38 ( 10.02, 153.53) 06/26/2016 03:09:13 ( 22.65, 150.53)
6 06/26/2016 15:37:30 ( 22.67, 150.76) 06/26/2016 15:41:05 ( 10.05, 147.76)
7 06/27/2016 02:46:35 ( 10.00, 158.29) 06/27/2016 02:50:11 ( 22.69, 155.27)
8 06/27/2016 15:18:28 ( 22.69, 155.52) 06/27/2016 15:22:04 ( 10.01, 152.50)
9 06/28/2016 02:27:34 ( 10.05, 163.04) 06/28/2016 02:31:09 ( 22.67, 160.04)
10 06/28/2016 14:59:26 ( 22.65, 160.27) 06/28/2016 15:03:01 ( 10.03, 157.27)
11 06/29/2016 02:11:11 ( 19.43, 165.60) 06/29/2016 02:12:06 ( 22.65, 164.80)
12 06/29/2016 03:50:01 ( 10.03, 142.42) 06/29/2016 03:53:30 ( 22.31, 139.51)
13 06/29/2016 14:40:24 ( 22.66, 165.03) 06/29/2016 14:43:59 ( 10.04, 162.03)
14 06/29/2016 16:21:54 ( 22.66, 139.65) 06/29/2016 16:22:04 ( 22.07, 139.51)
15 06/30/2016 03:30:59 ( 10.02, 147.19) 06/30/2016 03:34:34 ( 22.64, 144.19)
16 06/30/2016 16:02:51 ( 22.67, 144.42) 06/30/2016 16:06:26 ( 10.05, 141.42)
17 07/01/2016 03:11:56 ( 10.00, 151.95) 07/01/2016 03:15:32 ( 22.68, 148.93)
18 07/01/2016 15:43:49 ( 22.69, 149.18) 07/01/2016 15:47:25 ( 10.01, 146.16)
19 07/02/2016 02:52:55 ( 10.04, 156.70) 07/02/2016 02:56:30 ( 22.67, 153.70)
20 07/02/2016 15:24:47 ( 22.65, 153.93) 07/02/2016 15:28:22 ( 10.03, 150.93)
21 07/03/2016 02:33:52 ( 10.03, 161.46) 07/03/2016 02:37:27 ( 22.65, 158.46)
22 07/03/2016 15:05:45 ( 22.66, 158.69) 07/03/2016 15:09:20 ( 10.04, 155.69)
23
